Date,TemperatureHighF,TemperatureAvgF,TemperatureLowF,DewpointHighF,DewpointAvgF,DewpointLowF,HumidityHigh,HumidityAvg,HumidityLow,PressureMaxIn,PressureMinIn,WindSpeedMaxMPH,WindSpeedAvgMPH,GustSpeedMaxMPH,PrecipitationSumIn
2014-1-1,41,39,37,40,38,36,99,98,97,30.37,30.27,4,0,4,0.01
2014-1-2,44,39,34,44,38,34,100,99,97,30.28,30.08,6,1,6,0.00
2014-1-3,47,41,31,45,39,30,99,92,72,30.31,30.10,12,1,12,0.23
2014-1-4,42,34,28,37,32,27,100,94,83,30.42,30.31,11,1,11,0.00
2014-1-5,46,32,24,37,29,23,97,90,67,30.43,30.25,10,1,10,0.01
2014-1-6,41,35,28,40,33,27,97,92,78,30.30,30.19,5,0,5,0.07
2014-1-7,48,41,39,47,40,39,98,98,96,30.19,30.08,4,0,9,0.27
2014-1-8,53,48,44,50,47,42,98,95,87,30.08,29.87,21,4,21,0.33
2014-1-9,49,45,42,48,44,41,97,95,89,30.14,29.98,14,4,19,0.16
2014-1-10,53,50,47,49,46,42,97,88,70,30.22,29.82,16,4,17,0.03
2014-1-11,55,48,44,50,44,41,95,85,67,30.11,29.67,26,7,26,0.71
2014-1-12,51,47,43,49,45,40,95,93,87,30.52,30.11,17,4,17,0.29
2014-1-13,53,47,38,48,45,37,96,92,79,30.67,30.52,11,1,11,0.00
2014-1-14,46,38,33,44,37,32,98,97,89,30.68,30.58,6,0,6,0.01
2014-1-15,38,36,33,38,36,33,99,98,98,30.60,30.48,6,0,6,0.01
2014-1-16,37,35,34,36,35,34,99,98,98,30.49,30.31,4,0,4,0.01
2014-1-17,35,34,32,35,33,31,99,98,98,30.31,30.22,5,0,5,0.01
2014-1-18,35,32,30,35,32,30,100,99,98,30.33,30.20,5,0,5,0.00
2014-1-19,38,34,31,38,33,30,100,99,98,30.27,30.18,6,1,6,0.01
2014-1-20,48,36,31,41,34,30,100,94,74,30.33,30.26,5,0,5,0.00
2014-1-21,40,32,29,39,32,29,99,98,97,30.40,30.27,6,0,6,0.00
2014-1-22,49,40,33,43,38,32,99,92,78,30.40,30.29,12,2,12,0.01
2014-1-23,55,41,30,41,34,29,97,77,54,30.33,30.21,13,3,18,0.00
2014-1-24,54,39,29,37,31,27,93,73,51,30.37,30.25,11,1,11,0.00
2014-1-25,50,36,27,37,31,25,95,83,59,30.41,30.26,6,0,6,0.00
2014-1-26,53,36,26,39,32,25,97,86,59,30.26,30.08,7,0,7,0.00
2014-1-27,39,35,31,36,32,29,96,89,77,30.26,30.12,6,0,6,0.09
2014-1-28,42,39,36,42,38,35,98,96,93,30.27,29.99,4,0,4,0.36
2014-1-29,54,49,42,50,46,40,99,88,78,30.00,29.83,23,5,24,0.18
2014-1-30,50,44,40,42,40,38,100,86,69,30.04,29.97,12,2,12,0.05
2014-1-31,48,42,39,42,40,38,100,91,76,30.18,30.04,13,2,13,0.15
2014-2-1,53,41,34,40,37,32,98,86,59,30.20,30.01,10,1,10,0.01
2014-2-2,46,39,33,39,36,32,97,90,77,30.01,29.94,7,1,7,0.00
2014-2-3,45,38,35,38,36,34,97,91,67,30.15,30.01,9,1,9,0.05
2014-2-4,36,33,30,35,31,25,97,94,83,30.31,30.15,7,1,7,0.08
2014-2-5,35,28,22,26,19,11,82,68,50,30.36,30.17,15,2,15,0.00
2014-2-6,26,23,20,23,18,11,93,82,60,30.17,29.73,8,2,9,0.01
2014-2-7,27,24,20,26,22,18,96,93,91,29.92,29.65,12,2,12,0.00
2014-2-8,31,29,27,30,28,25,97,96,95,29.98,29.72,11,1,11,0.00
2014-2-9,37,33,31,36,33,30,100,97,95,30.12,29.98,6,1,6,0.59
2014-2-10,45,39,33,44,38,32,99,98,96,30.22,30.12,7,1,7,0.40
2014-2-11,48,44,40,46,43,40,99,97,92,30.20,29.81,17,2,17,0.98
2014-2-12,54,52,47,53,50,46,98,96,91,29.95,29.78,24,5,24,0.54
2014-2-13,54,50,45,52,46,43,97,87,72,30.17,29.79,17,2,17,0.25
2014-2-14,54,50,45,52,48,44,98,95,85,30.01,29.76,14,2,19,1.11
2014-2-15,56,46,41,53,45,39,99,95,85,29.93,29.42,31,2,31,0.79
2014-2-16,51,45,40,44,40,38,94,83,65,30.11,29.83,28,7,30,0.14
2014-2-17,53,48,44,46,43,40,94,83,70,30.06,29.82,30,6,30,0.53
2014-2-18,51,46,38,49,44,36,95,91,85,30.07,29.78,16,4,24,0.78
2014-2-19,46,42,38,42,40,36,96,92,80,30.28,30.05,14,3,15,0.40
2014-2-20,46,44,42,45,43,40,100,95,92,30.30,30.24,13,2,14,0.30
2014-2-21,53,46,38,45,42,36,98,88,61,30.32,30.22,6,0,7,0.00
2014-2-22,53,40,32,42,36,31,97,85,61,30.23,30.06,7,0,7,0.00
2014-2-23,48,41,30,46,38,29,98,92,81,30.07,29.97,10,2,10,0.14
2014-2-24,57,49,43,56,48,42,98,97,93,30.03,29.97,9,1,10,0.18
2014-2-25,55,45,39,45,39,34,97,81,62,30.02,29.92,11,2,11,0.00
2014-2-26,52,43,36,41,36,33,91,78,60,29.93,29.64,12,1,12,0.00
2014-2-27,50,43,38,48,41,34,98,94,80,29.75,29.62,7,1,7,0.20
2014-2-28,60,47,40,50,44,39,98,90,66,29.71,29.39,9,2,11,0.00
2014-3-1,48,44,40,48,43,40,100,95,88,29.75,29.48,8,0,8,0.54
2014-3-2,55,48,40,51,45,40,100,93,81,29.88,29.68,23,4,26,0.46
2014-3-3,59,52,47,56,50,46,97,92,80,29.99,29.77,16,3,16,0.52
2014-3-4,62,53,46,53,50,45,97,88,69,30.06,29.84,14,1,14,0.02
2014-3-5,58,55,52,56,53,49,97,93,79,29.84,29.51,22,4,22,1.61
2014-3-6,55,51,49,51,48,45,95,89,77,30.19,29.64,25,5,32,0.57
2014-3-7,63,54,45,49,47,43,93,79,58,30.30,30.10,12,1,12,0.00
2014-3-8,58,50,44,54,48,42,96,92,88,30.12,29.87,14,2,14,0.53
2014-3-9,60,55,50,55,53,48,98,93,80,30.05,29.93,14,2,14,0.38
2014-3-10,53,48,39,49,45,38,95,88,74,30.51,30.01,12,1,12,0.15
2014-3-11,57,43,32,46,39,31,98,86,65,30.57,30.37,13,1,13,0.01
2014-3-12,66,47,32,46,39,31,98,77,35,30.38,30.15,5,1,9,0.00
2014-3-13,60,47,34,49,42,33,97,82,53,30.17,30.07,1,0,1,0.00
2014-3-14,61,52,43,52,46,40,96,80,48,30.34,30.06,14,2,15,0.27
2014-3-15,64,51,39,54,46,38,97,84,65,30.35,30.27,11,1,11,0.00
2014-3-16,59,51,42,51,47,41,95,86,65,30.34,29.99,21,3,21,0.64
2014-3-17,52,44,39,42,38,33,99,81,54,30.41,30.12,11,1,11,0.03
2014-3-18,56,46,36,44,39,34,95,79,61,30.40,30.15,12,2,14,0.00
2014-3-19,54,45,36,46,40,34,97,86,69,30.29,30.13,10,2,15,0.00
2014-3-20,54,42,31,40,35,29,97,79,44,30.38,30.29,8,1,9,0.01
2014-3-21,55,44,35,40,35,31,93,74,44,30.32,30.19,13,3,13,0.00
2014-3-22,60,45,31,40,34,29,94,70,40,30.30,30.19,10,1,10,0.00
2014-3-23,62,46,32,44,38,30,100,75,44,30.31,30.18,8,1,8,0.00
2014-3-24,69,50,36,48,41,34,97,74,36,30.18,29.90,11,1,11,0.00
2014-3-25,56,51,47,49,45,42,93,82,69,29.90,29.69,30,3,30,0.29
2014-3-26,52,47,45,48,44,43,95,89,76,29.69,29.57,22,4,22,0.44
2014-3-27,55,48,44,50,45,42,96,91,75,29.93,29.63,16,4,16,0.68
2014-3-28,53,50,47,51,48,44,96,93,85,29.91,29.76,15,3,16,1.12
2014-3-29,56,49,46,49,46,43,100,87,69,29.95,29.81,17,5,27,0.39
2014-3-30,53,47,41,45,42,39,96,85,65,30.03,29.95,8,2,11,0.08
2014-3-31,51,44,36,45,40,35,97,88,72,29.95,29.67,11,1,11,0.02
2014-4-1,52,46,42,45,42,39,96,87,61,29.96,29.75,9,1,11,0.05
2014-4-2,60,50,41,47,43,36,97,80,41,30.07,29.96,10,2,10,0.00
2014-4-3,56,49,43,48,43,40,94,83,56,30.02,29.95,10,2,17,0.24
2014-4-4,57,50,45,46,44,40,96,83,54,30.01,29.95,12,2,12,0.21
2014-4-5,54,50,47,51,48,45,96,93,83,30.20,30.01,14,3,14,0.22
2014-4-6,64,55,49,55,51,47,96,87,65,30.32,30.19,13,3,13,0.02
2014-4-7,73,55,43,58,49,42,98,84,45,30.29,30.10,8,1,8,0.00
2014-4-8,69,56,45,56,50,43,97,82,57,30.19,30.07,8,1,8,0.05
2014-4-9,62,53,45,51,44,35,98,74,43,30.25,30.15,12,2,13,0.04
2014-4-10,64,52,40,45,39,35,97,66,36,30.24,30.08,13,2,13,0.00
2014-4-11,67,54,44,50,44,38,86,70,45,30.12,29.98,14,2,14,0.00
2014-4-12,62,52,45,48,43,40,87,72,49,30.11,30.01,11,2,11,0.00
2014-4-13,73,55,37,46,40,35,95,62,28,30.22,30.08,16,2,16,0.00
2014-4-14,70,53,38,49,41,35,91,66,35,30.22,30.07,10,1,10,0.00
2014-4-15,59,52,46,45,42,38,84,70,52,30.27,30.13,8,1,8,0.00
2014-4-16,59,53,47,49,46,42,91,77,62,30.17,30.01,10,1,10,0.00
2014-4-17,54,51,45,52,49,44,96,94,79,30.05,29.89,17,2,17,0.70
2014-4-18,61,49,36,47,41,35,98,77,48,30.15,29.87,14,1,14,0.01
2014-4-19,57,49,41,50,45,40,96,88,72,30.26,29.85,21,2,21,0.13
2014-4-20,63,52,39,51,45,38,98,80,55,30.29,30.12,9,1,10,0.00
2014-4-21,62,51,46,50,46,42,96,84,50,30.12,29.89,9,1,9,0.22
2014-4-22,53,47,45,48,44,41,96,89,74,30.00,29.90,17,3,17,0.44
2014-4-23,54,50,45,52,47,43,96,92,78,30.01,29.79,20,5,20,0.55
2014-4-24,55,51,46,51,48,43,96,88,65,29.95,29.75,18,3,18,0.68
2014-4-25,53,46,42,47,44,41,97,90,70,29.92,29.86,7,1,9,0.26
2014-4-26,56,47,37,46,42,36,98,86,57,29.91,29.75,17,3,17,0.15
2014-4-27,55,48,44,48,44,42,95,86,68,30.20,29.77,13,3,16,0.30
2014-4-28,64,51,38,51,44,37,96,76,49,30.34,30.20,8,1,8,0.00
2014-4-29,77,59,42,55,48,40,96,69,36,30.44,30.25,13,1,13,0.00
2014-4-30,86,67,48,54,48,41,84,54,25,30.30,30.00,12,2,13,0.00
2014-5-1,85,64,50,58,48,44,88,59,26,30.03,29.98,8,1,8,0.00
2014-5-2,70,63,55,57,53,48,80,70,57,30.05,29.96,9,2,9,0.00
2014-5-3,60,54,48,52,49,46,94,82,60,30.01,29.81,21,3,21,0.28
2014-5-4,59,55,51,52,50,48,92,82,70,29.95,29.85,18,4,22,0.24
2014-5-5,61,53,46,50,47,44,96,82,59,30.08,29.95,11,2,12,0.07
2014-5-6,64,53,47,48,44,35,93,73,44,30.09,30.00,10,1,10,0.00
2014-5-7,64,51,37,48,42,35,96,73,40,30.07,29.92,9,1,9,0.00
2014-5-8,59,53,49,56,50,45,96,91,81,29.94,29.72,16,3,16,0.62
2014-5-9,57,51,47,50,48,45,96,89,69,30.08,29.90,15,3,17,0.43
2014-5-10,59,51,46,52,47,44,96,87,65,30.29,30.08,10,1,10,0.22
2014-5-11,67,55,44,51,47,43,96,77,44,30.33,30.22,7,1,9,0.00
2014-5-12,77,60,44,55,46,37,97,65,24,30.29,30.18,11,1,11,0.00
2014-5-13,83,64,46,57,48,42,91,60,28,30.28,30.18,11,1,11,0.00
2014-5-14,89,69,51,63,54,46,88,62,31,30.21,30.01,11,1,12,0.00
2014-5-15,78,67,56,59,55,48,93,67,43,30.11,30.00,12,2,12,0.00
2014-5-16,68,58,48,55,50,46,95,76,55,30.15,30.07,8,2,11,0.00
2014-5-17,70,59,52,56,51,48,92,78,51,30.11,29.86,9,1,9,0.04
2014-5-18,59,54,52,56,52,49,96,92,77,29.95,29.86,14,2,14,1.08
2014-5-19,69,58,52,55,52,48,96,80,51,30.03,29.93,9,1,9,0.04
2014-5-20,74,60,47,58,52,46,96,77,50,30.14,30.03,10,1,10,0.00
2014-5-21,71,59,48,57,51,46,92,76,50,30.17,30.07,13,1,13,0.00
2014-5-22,80,65,52,64,56,50,95,75,47,30.10,29.95,8,1,11,0.00
2014-5-23,67,63,57,60,58,54,94,84,72,30.15,29.98,8,1,8,0.04
2014-5-24,69,61,55,56,52,50,89,75,53,30.19,30.09,11,1,11,0.00
2014-5-25,71,60,48,59,53,47,95,78,56,30.12,29.97,15,2,15,0.00
2014-5-26,70,61,54,54,50,46,89,71,45,30.17,30.06,12,2,12,0.00
2014-5-27,66,56,51,52,48,43,90,76,48,30.16,30.12,10,1,10,0.00
2014-5-28,64,55,50,52,49,45,93,79,53,30.25,30.14,12,2,12,0.07
2014-5-29,65,54,48,53,49,46,95,84,56,30.26,30.18,12,1,12,0.00
2014-5-30,77,68,55,58,53,50,84,61,42,30.01,29.90,12,1,12,0.00
2014-5-31,75,60,47,58,52,45,97,75,46,30.09,30.01,10,1,10,0.00
2014-6-1,72,60,50,58,52,47,94,77,54,30.11,29.93,10,1,10,0.00
2014-6-2,78,62,48,62,54,46,98,76,48,29.95,29.84,10,1,10,0.00
2014-6-3,68,58,52,55,50,47,87,75,56,30.09,29.94,7,0,7,0.00
2014-6-4,73,59,45,59,51,43,96,76,52,30.14,30.05,12,1,12,0.00
2014-6-5,76,61,48,55,48,44,87,65,33,30.14,30.00,12,2,14,0.00
2014-6-6,80,63,47,55,47,41,87,60,30,30.10,30.01,13,1,13,0.00
2014-6-7,76,64,52,60,52,41,85,66,50,30.17,30.08,13,1,14,0.00
2014-6-8,80,66,52,62,55,50,93,71,45,30.21,30.03,13,1,13,0.00
2014-6-9,75,63,54,54,52,48,89,68,44,30.14,30.02,14,1,14,0.00
2014-6-10,75,61,48,57,49,45,87,67,43,30.12,30.02,11,1,11,0.00
2014-6-11,79,64,50,58,52,47,93,69,36,30.05,29.81,12,1,12,0.00
2014-6-12,63,58,54,56,52,50,89,81,68,29.97,29.85,13,3,14,0.05
2014-6-13,62,57,53,55,52,48,95,85,70,30.20,29.97,10,2,11,0.10
2014-6-14,64,58,53,53,50,46,92,78,55,30.19,30.01,8,1,8,0.00
2014-6-15,62,56,50,57,51,47,94,83,71,30.02,29.89,11,1,12,0.06
2014-6-16,62,54,50,54,49,47,93,83,65,30.06,29.93,8,1,11,0.31
2014-6-17,61,55,50,54,50,47,94,85,71,30.17,30.06,8,1,8,0.00
2014-6-18,73,60,48,56,50,46,98,72,40,30.17,30.00,8,0,8,0.00
2014-6-19,78,63,47,59,53,46,96,71,42,30.09,29.97,10,2,10,0.00
2014-6-20,71,61,53,56,52,48,95,76,47,30.16,30.08,10,1,10,0.15
2014-6-21,75,61,49,56,49,43,89,68,35,30.11,29.97,14,1,14,0.00
2014-6-22,80,64,48,58,52,46,94,67,31,30.07,29.92,11,1,13,0.00
2014-6-23,77,64,55,60,54,41,94,71,39,30.09,29.96,8,1,8,0.07
2014-6-24,78,64,52,61,56,50,97,76,48,30.12,29.99,9,1,9,0.00
2014-6-25,71,64,56,63,60,54,94,85,71,29.99,29.81,7,1,7,0.00
2014-6-26,68,62,59,61,59,57,96,89,76,29.88,29.81,12,2,12,0.19
2014-6-27,68,62,58,61,58,56,97,88,70,29.98,29.77,20,3,20,0.52
2014-6-28,68,62,57,61,57,55,96,85,70,30.09,29.96,12,2,12,0.07
2014-6-29,74,64,56,57,55,52,95,74,49,30.19,30.09,11,1,11,0.02
2014-6-30,84,67,54,64,57,51,93,72,47,30.17,29.87,12,2,14,0.00
2014-7-1,97,75,56,64,59,54,92,61,27,29.88,29.69,9,0,9,0.00
2014-7-2,83,68,60,65,58,53,89,71,46,30.02,29.82,9,1,9,0.00
2014-7-3,74,65,57,58,55,53,89,72,50,30.10,30.00,8,1,8,0.00
2014-7-4,80,67,56,59,54,50,88,67,38,30.05,29.95,8,1,8,0.00
2014-7-5,86,76,60,62,56,49,84,54,30,30.09,30.01,11,1,11,0.00
2014-7-6,88,72,56,65,59,53,93,67,35,30.15,30.02,9,1,9,0.00
2014-7-7,90,75,62,69,64,59,92,70,42,30.07,29.90,13,1,13,0.00
2014-7-8,89,75,62,67,63,58,93,68,37,29.99,29.90,13,1,13,0.00
2014-7-9,86,73,62,62,57,52,77,58,33,29.99,29.86,13,2,13,0.00
2014-7-10,87,70,54,62,55,50,89,64,29,29.95,29.81,10,1,11,0.00
2014-7-11,82,70,54,65,59,52,92,71,39,29.98,29.86,8,0,8,0.00
2014-7-12,92,74,60,69,62,57,92,70,35,30.08,29.97,8,1,8,0.00
2014-7-13,72,65,59,65,60,57,93,85,74,30.13,30.04,9,1,9,0.03
2014-7-14,88,72,61,68,62,57,92,73,41,30.13,29.99,10,0,10,0.00
2014-7-15,92,75,60,68,62,57,91,67,38,30.05,29.87,12,1,12,0.00
2014-7-16,93,77,62,65,60,54,93,61,28,29.99,29.86,9,1,9,0.00
2014-7-17,86,70,54,60,55,51,92,64,33,30.06,29.94,10,0,10,0.00
2014-7-18,82,68,54,60,54,49,85,64,39,30.10,30.01,12,1,12,0.00
2014-7-19,89,74,60,66,61,57,90,67,38,30.09,29.93,9,1,10,0.00
2014-7-20,73,66,61,61,58,53,90,77,57,29.98,29.90,8,1,8,0.00
2014-7-21,77,66,55,62,55,51,86,69,43,30.02,29.94,11,1,11,0.00
2014-7-22,73,64,59,64,60,56,94,84,65,30.04,29.97,8,1,8,0.23
2014-7-23,63,60,58,58,55,53,96,85,77,30.17,30.00,11,2,11,0.65
2014-7-24,71,62,57,60,55,53,93,79,58,30.29,30.16,12,2,13,0.02
2014-7-25,79,65,53,61,55,50,93,72,44,30.16,30.01,10,1,10,0.00
2014-7-26,84,69,54,62,57,52,95,69,34,30.12,30.02,13,1,13,0.00
2014-7-27,86,71,59,67,60,55,87,70,44,30.10,29.98,11,1,11,0.00
2014-7-28,92,75,58,68,60,55,92,64,35,30.07,29.96,10,1,10,0.00
2014-7-29,91,75,60,65,60,55,92,62,30,30.09,29.97,11,1,11,0.00
2014-7-30,89,73,58,65,59,54,89,62,37,30.09,29.95,15,1,15,0.00
2014-7-31,88,74,60,66,59,56,88,61,37,30.03,29.90,12,1,14,0.00
2014-8-1,89,75,63,68,62,58,93,67,40,29.99,29.85,7,1,10,0.12
2014-8-2,88,72,60,63,60,57,90,67,35,29.99,29.90,8,1,8,0.00
2014-8-3,89,73,57,71,61,55,94,70,44,30.01,29.84,8,0,8,0.00
2014-8-4,90,74,62,69,62,57,94,69,37,29.97,29.84,10,0,10,0.00
2014-8-5,83,68,55,64,56,51,91,69,36,30.09,29.97,9,0,9,0.00
2014-8-6,84,70,55,65,59,52,93,71,47,30.14,30.00,13,1,13,0.00
2014-8-7,84,70,56,58,53,42,88,59,26,30.08,29.96,9,1,9,0.00
2014-8-8,79,67,55,56,53,50,83,62,40,30.11,30.00,12,2,12,0.00
2014-8-9,85,70,55,59,54,50,85,60,31,30.10,29.96,15,2,15,0.00
2014-8-10,92,75,62,69,59,53,76,59,34,30.02,29.84,14,1,14,0.00
2014-8-11,94,79,66,73,63,57,84,59,40,29.91,29.76,8,0,8,0.00
2014-8-12,73,68,63,65,61,58,85,78,69,29.93,29.81,13,1,13,0.02
2014-8-13,77,66,58,63,59,55,91,77,57,30.01,29.92,8,1,8,0.00
2014-8-14,77,69,60,64,60,55,94,74,51,30.01,29.92,11,1,11,0.00
2014-8-15,79,69,63,64,61,59,91,77,53,30.05,29.96,9,1,9,0.00
2014-8-16,86,71,57,66,61,55,96,73,42,30.08,29.97,12,1,12,0.00
2014-8-17,88,74,61,66,62,58,93,68,39,30.07,29.92,14,1,16,0.00
2014-8-18,90,74,61,69,62,57,89,68,43,29.96,29.75,11,1,11,0.00
2014-8-19,87,72,63,64,61,58,89,70,39,29.88,29.77,10,1,10,0.00
2014-8-20,78,69,59,59,55,50,87,62,38,29.99,29.87,9,0,9,0.00
2014-8-21,82,64,50,57,50,43,93,65,26,30.05,29.91,8,1,9,0.00
2014-8-22,80,66,52,61,53,45,87,65,40,30.05,29.95,10,1,10,0.00
2014-8-23,86,70,53,61,54,48,93,62,28,30.10,29.94,13,1,14,0.00
2014-8-24,82,69,55,60,53,43,88,59,27,29.96,29.82,11,1,11,0.00
2014-8-25,89,72,55,61,55,47,91,60,26,29.96,29.86,13,1,13,0.00
2014-8-26,93,75,59,62,57,50,89,58,26,30.00,29.89,10,0,10,0.00
2014-8-27,92,74,58,65,58,53,89,61,34,30.03,29.94,7,0,7,0.00
2014-8-28,85,71,58,62,58,55,92,66,38,30.09,29.96,12,1,12,0.00
2014-8-29,79,66,55,62,58,53,92,75,48,30.00,29.91,8,1,9,0.00
2014-8-30,67,63,60,63,60,57,95,89,77,30.02,29.92,11,1,11,0.23
2014-8-31,74,64,55,59,56,52,97,76,49,30.08,30.00,12,1,12,0.00
2014-9-1,81,65,51,60,55,49,96,72,40,30.08,29.93,10,0,10,0.00
2014-9-2,78,66,58,58,56,52,93,72,43,30.00,29.88,10,1,11,0.00
2014-9-3,72,59,46,54,49,44,98,72,43,30.11,30.00,7,1,10,0.00
2014-9-4,84,66,51,56,50,47,91,61,32,30.03,29.88,14,1,16,0.00
2014-9-5,92,72,52,56,47,39,83,48,18,29.99,29.84,9,0,9,0.00
2014-9-6,96,74,56,60,47,40,72,43,16,29.91,29.76,8,1,9,0.00
2014-9-7,85,66,51,61,53,47,91,65,30,29.89,29.78,6,0,7,0.00
2014-9-8,78,64,49,60,55,47,96,75,49,29.97,29.85,10,1,11,0.00
2014-9-9,75,64,58,57,52,47,84,65,40,30.12,29.97,8,1,9,0.00
2014-9-10,78,63,48,58,52,46,95,71,40,30.15,30.01,10,1,12,0.00
2014-9-11,84,67,53,53,41,33,81,44,18,30.11,29.93,11,1,11,0.00
2014-9-12,85,65,49,52,40,35,72,43,20,29.94,29.82,9,1,9,0.00
2014-9-13,89,65,46,58,45,40,89,55,20,29.87,29.76,4,0,7,0.00
2014-9-14,89,66,46,58,47,41,87,56,22,29.86,29.77,6,0,7,0.00
2014-9-15,85,66,50,59,50,44,86,60,28,29.87,29.75,9,1,9,0.00
2014-9-16,78,64,53,60,54,50,92,72,42,29.93,29.80,7,1,9,0.00
2014-9-17,72,65,59,60,57,55,88,77,59,29.80,29.67,8,0,8,0.00
2014-9-18,72,63,58,61,58,55,92,83,62,29.99,29.71,3,0,5,0.02
2014-9-19,82,67,53,62,56,51,96,71,36,30.08,29.97,9,1,10,0.00
2014-9-20,92,71,59,66,60,56,94,71,35,30.00,29.76,7,1,11,0.00
2014-9-21,83,69,59,62,58,51,90,70,34,29.97,29.81,11,2,12,0.00
2014-9-22,68,63,59,61,57,55,95,83,69,30.01,29.89,8,1,9,0.04
2014-9-23,68,62,57,63,60,56,97,93,80,29.91,29.69,5,0,6,0.18
2014-9-24,64,61,59,62,60,57,96,94,86,29.88,29.77,6,1,9,0.40
2014-9-25,70,60,56,59,56,53,96,88,59,29.94,29.83,11,1,15,0.70
2014-9-26,71,61,54,58,55,51,96,81,49,30.06,29.94,11,1,12,0.01
2014-9-27,68,58,54,58,55,52,95,88,71,30.09,29.99,9,0,10,0.00
2014-9-28,76,60,49,62,55,47,97,83,54,30.00,29.88,9,0,9,0.00
2014-9-29,64,58,52,59,55,50,96,91,73,30.07,29.91,12,2,12,0.05